FW0446 Weather Reports


Display with metric or nautical units.
time (UTC)temp
F
wind
direction
speed
MPH
gust
MPH
rain 1hr
in
rain 24hr
in
rain mn
in
humidity
%
barometer
mb
20221203220102 51 239 3.0 6.0 0.00 0.00 0.00 99 1019.7
20221203215601 51 291 4.0 6.0 0.00 0.00 0.00 99 1019.7
20221203215101 51 204 5.0 10.0 0.00 0.00 0.00 99 1019.6
20221203214600 51 45 6.0 10.0 0.00 0.00 0.00 99 1019.6
20221203213600 51 3 5.0 8.0 0.00 0.00 0.00 99 1019.4
20221203213100 51 285 3.0 16.0 0.00 0.00 0.00 99 1019.4
20221203212600 51 90 6.0 16.0 0.00 0.00 0.00 99 1019.3
20221203212100 51 208 9.0 16.0 0.00 0.00 0.00 99 1019.3
20221203211600 51 115 4.0 9.0 0.00 0.00 0.00 99 1019.3
20221203211101 51 85 6.0 10.0 0.00 0.00 0.00 99 1019.3
20221203210600 51 15 5.0 10.0 0.00 0.00 0.00 99 1019.3
20221203205600 51 261 3.0 5.0 0.00 0.00 0.00 99 1019.4
20221203204100 51 60 3.0 7.0 0.00 0.00 0.00 99 1019.4
20221203203600 51 35 1.0 9.0 0.00 0.00 0.00 99 1019.7
20221203203100 52 185 10.0 13.0 0.00 0.00 0.00 99 1019.7
20221203202600 52 329 8.0 14.0 0.00 0.00 0.00 99 1019.6
20221203202101 51 264 5.0 12.0 0.00 0.00 0.00 99 1019.6
20221203201600 51 60 3.0 7.0 0.00 0.00 0.00 99 1019.6
20221203201101 51 327 5.0 7.0 0.00 0.00 0.00 99 1019.6
20221203200600 51 21 2.0 5.0 0.00 0.00 0.00 99 1019.6
20221203195600 51 289 5.0 9.0 0.00 0.00 0.00 99 1019.5
20221203195100 51 124 7.0 10.0 0.00 0.00 0.00 99 1019.4
20221203194600 51 90 8.0 12.0 0.00 0.00 0.00 99 1019.4
20221203194100 51 87 8.0 13.0 0.00 0.00 0.00 99 1019.4
20221203193600 51 31 10.0 15.0 0.00 0.00 0.00 99 1019.4
20221203193100 51 55 7.0 10.0 0.00 0.00 0.00 99 1019.4
20221203192600 51 350 7.0 10.0 0.00 0.00 0.00 99 1019.5
20221203192100 51 43 5.0 12.0 0.00 0.00 0.00 99 1019.5
20221203191600 51 34 7.0 16.0 0.00 0.00 0.00 99 1019.5
20221203191100 51 44 10.0 13.0 0.00 0.00 0.00 99 1019.2
20221203190103 51 292 9.0 16.0 0.00 0.00 0.00 99 1019.3
20221203185100 51 75 12.0 16.0 0.00 0.00 0.00 99 1019.0
20221203184601 51 91 12.0 16.0 0.00 0.00 0.00 99 1018.9
20221203184100 51 76 12.0 15.0 0.00 0.00 0.00 99 1018.9
20221203183600 51 68 13.0 15.0 0.00 0.00 0.00 99 1019.0
20221203183101 51 47 11.0 16.0 0.00 0.00 0.00 99 1019.0
20221203182600 51 95 12.0 14.0 0.00 0.00 0.00 99 1018.9
20221203182100 51 45 12.0 15.0 0.00 0.00 0.00 99 1018.9
20221203181600 51 135 12.0 16.0 0.00 0.00 0.00 99 1018.9
20221203181100 51 52 9.0 13.0 0.00 0.00 0.00 99 1019.0
20221203180600 51 94 7.0 14.0 0.00 0.00 0.00 99 1019.0
20221203180103 51 32 9.0 15.0 0.00 0.00 0.00 99 1019.2
20221203175600 51 16 6.0 10.0 0.00 0.00 0.00 99 1019.2
20221203175101 51 7 5.0 8.0 0.00 0.00 0.00 99 1019.1
20221203174601 51 31 5.0 8.0 0.00 0.00 0.00 99 1019.0
20221203174100 51 1 4.0 8.0 0.00 0.00 0.00 99 1019.0
20221203173600 51 39 5.0 7.0 0.00 0.00 0.00 99 1018.8
20221203173100 51 55 9.0 12.0 0.00 0.00 0.00 99 1018.8
20221203172600 51 125 6.0 10.0 0.00 0.00 0.00 99 1018.7
20221203172101 51 78 10.0 15.0 0.00 0.00 0.00 99 1018.7
20221203171600 51 85 10.0 13.0 0.00 0.00 0.00 99 1018.7
20221203171100 51 198 7.0 12.0 0.00 0.00 0.00 99 1018.8
20221203170601 51 64 10.0 15.0 0.00 0.00 0.00 99 1018.8
20221203170103 51 82 11.0 16.0 0.00 0.00 0.00 99 1018.8
20221203165601 51 96 10.0 16.0 0.00 0.00 0.00 99 1018.8
20221203164601 52 123 13.0 16.0 0.00 0.00 0.00 99 1018.7
20221203163600 52 152 11.0 17.0 0.00 0.00 0.00 99 1018.4
20221203163100 52 101 13.0 16.0 0.00 0.00 0.00 99 1018.4
20221203162601 52 79 8.0 16.0 0.00 0.00 0.00 99 1018.5
20221203162101 52 82 8.0 16.0 0.00 0.00 0.00 99 1018.5
20221203161601 52 48 8.0 16.0 0.00 0.00 0.00 99 1018.5
20221203161101 52 74 7.0 12.0 0.00 0.00 0.00 99 1018.5
20221203160600 52 116 8.0 13.0 0.00 0.00 0.00 99 1018.5
20221203160103 52 112 9.0 13.0 0.00 0.00 0.00 99 1018.5
20221203155601 52 58 8.0 12.0 0.00 0.00 0.00 99 1018.5
20221203155101 53 94 9.0 13.0 0.00 0.00 0.00 99 1018.4
20221203154600 53 71 9.0 14.0 0.00 0.00 0.00 99 1018.3
20221203154100 53 111 9.0 12.0 0.00 0.00 0.00 99 1018.3
20221203153600 53 59 7.0 9.0 0.00 0.00 0.00 99 1018.5
20221203152600 53 80 8.0 10.0 0.00 0.00 0.00 99 1018.4
20221203152101 53 79 7.0 10.0 0.00 0.00 0.00 99 1018.4
20221203151600 53 45 7.0 10.0 0.00 0.00 0.00 99 1018.4
20221203150601 53 79 9.0 10.0 0.00 0.00 0.00 99 1018.5
20221203145601 53 89 7.0 12.0 0.00 0.00 0.00 99 1018.4
20221203145100 53 95 7.0 10.0 0.00 0.00 0.00 99 1018.4
20221203143601 54 77 6.0 9.0 0.00 0.00 0.00 99 1018.3
20221203142600 54 69 7.0 10.0 0.00 0.00 0.00 99 1018.2
20221203142101 54 50 8.0 10.0 0.00 0.00 0.00 99 1018.2
20221203141601 54 288 5.0 12.0 0.00 0.00 0.00 99 1018.2
20221203141100 54 97 9.0 12.0 0.00 0.00 0.00 99 1018.1
20221203140600 55 48 5.0 9.0 0.00 0.00 0.00 99 1018.1
20221203140103 55 61 7.0 10.0 0.00 0.00 0.00 99 1018.1
20221203135601 55 68 7.0 9.0 0.00 0.00 0.00 99 1018.1
20221203134601 55 149 8.0 13.0 0.00 0.00 0.00 99 1018.0
20221203133601 56 70 7.0 10.0 0.00 0.00 0.00 99 1018.0
20221203133100 55 91 3.0 8.0 0.00 0.00 0.00 99 1018.0
20221203132600 55 90 8.0 13.0 0.00 0.00 0.00 99 1018.0
20221203132101 56 88 11.0 13.0 0.00 0.00 0.00 99 1018.0
20221203131601 56 90 7.0 10.0 0.00 0.00 0.00 99 1018.0
20221203131101 56 115 8.0 12.0 0.00 0.00 0.00 99 1017.9
20221203130103 56 158 8.0 13.0 0.00 0.00 0.00 99 1017.9
20221203125600 56 23 8.0 14.0 0.00 0.00 0.00 99 1017.9
20221203124601 56 52 7.0 10.0 0.00 0.00 0.00 99 1017.9
20221203124100 56 189 9.0 16.0 0.00 0.00 0.00 99 1017.9
20221203123101 57 71 6.0 15.0 0.00 0.00 0.00 99 1018.0
20221203122601 57 70 11.0 15.0 0.00 0.00 0.00 99 1018.0
20221203122101 57 102 10.0 13.0 0.00 0.00 0.00 99 1018.0
20221203121601 57 79 9.0 12.0 0.00 0.00 0.00 99 1018.0
20221203121104 57 31 9.0 14.0 0.00 0.00 0.00 99 1018.0
20221203120601 57 37 10.0 14.0 0.00 0.00 0.00 99 1018.0
20221203120103 57 53 7.0 10.0 0.00 0.00 0.00 99 1018.0
20221203115600 57 57 11.0 15.0 0.00 0.00 0.00 99 1018.0
20221203115101 57 34 8.0 12.0 0.00 0.00 0.00 99 1017.9
20221203113601 57 57 8.0 9.0 0.00 0.00 0.00 99 1018.0
20221203113101 57 90 9.0 13.0 0.00 0.00 0.00 99 1018.0
20221203112601 57 90 10.0 13.0 0.00 0.00 0.00 99 1018.1
20221203112101 58 112 8.0 13.0 0.00 0.00 0.00 99 1018.1
20221203111601 57 99 8.0 13.0 0.00 0.00 0.00 99 1018.1
20221203111101 58 61 8.0 15.0 0.00 0.00 0.00 99 1018.2
20221203110601 58 90 9.0 14.0 0.00 0.00 0.00 99 1018.2
20221203110104 58 78 8.0 12.0 0.00 0.00 0.00 99 1018.3
20221203105601 57 112 9.0 15.0 0.00 0.00 0.00 99 1018.3
20221203104601 57 78 7.0 10.0 0.00 0.00 0.00 99 1018.3
20221203104101 57 86 6.0 10.0 0.00 0.00 0.00 99 1018.3
20221203103601 58 106 8.0 10.0 0.00 0.00 0.00 99 1018.2
20221203103101 58 99 10.0 15.0 0.00 0.00 0.00 99 1018.2
20221203102601 58 33 9.0 14.0 0.00 0.00 0.00 98 1018.3
20221203102101 58 81 5.0 16.0 0.00 0.00 0.00 99 1018.3
20221203101601 59 102 10.0 12.0 0.00 0.00 0.00 99 1018.3
20221203100104 59 94 7.0 13.0 0.00 0.00 0.00 99 1018.6
20221203095601 59 109 7.0 12.0 0.00 0.00 0.00 99 1018.6
20221203095101 59 309 5.0 12.0 0.00 0.00 0.00 99 1018.6
20221203094601 59 74 10.0 13.0 0.00 0.00 0.00 99 1018.7
20221203094102 58 77 10.0 13.0 0.00 0.00 0.00 99 1018.7
20221203093602 59 32 9.0 12.0 0.00 0.00 0.00 99 1018.7
20221203093101 58 75 8.0 12.0 0.00 0.00 0.00 99 1018.7
20221203092601 59 103 8.0 10.0 0.00 0.00 0.00 99 1018.9
20221203092101 57 206 8.0 10.0 0.00 0.00 0.00 99 1018.9
20221203091601 57 352 4.0 7.0 0.00 0.00 0.00 99 1018.9
20221203091102 58 47 5.0 10.0 0.00 0.00 0.00 99 1018.9
20221203090601 59 37 5.0 7.0 0.00 0.00 0.00 99 1018.9
20221203090104 58 308 5.0 8.0 0.00 0.00 0.00 99 1019.1
20221203085601 57 97 9.0 12.0 0.00 0.00 0.00 99 1019.1
20221203085102 57 28 3.0 10.0 0.00 0.00 0.00 99 1019.0
20221203084602 57 263 2.0 5.0 0.00 0.00 0.00 99 1019.0
20221203084102 56 79 3.0 5.0 0.00 0.00 0.00 99 1019.0
20221203083601 56 226 5.0 13.0 0.00 0.00 0.00 99 1019.0
20221203083102 55 90 5.0 8.0 0.00 0.00 0.00 99 1019.0
20221203082601 56 88 8.0 9.0 0.00 0.00 0.00 99 1019.0
20221203081601 56 100 7.0 8.0 0.00 0.00 0.00 99 1019.0
20221203081101 55 55 9.0 12.0 0.00 0.00 0.00 99 1019.2
20221203080601 55 236 6.0 9.0 0.00 0.00 0.00 99 1019.2
20221203080103 54 128 4.0 7.0 0.00 0.00 0.00 99 1019.1
20221203075601 54 108 5.0 7.0 0.00 0.00 0.00 99 1019.1
20221203075101 54 112 5.0 9.0 0.00 0.00 0.00 99 1019.1
20221203073601 54 34 9.0 10.0 0.00 0.00 0.00 99 1019.0
20221203072101 54 78 4.0 6.0 0.00 0.00 0.00 99 1019.0
20221203071601 54 125 5.0 7.0 0.00 0.00 0.00 99 1019.0
20221203071101 53 70 3.0 6.0 0.00 0.00 0.00 99 1019.0
20221203070601 53 342 6.0 8.0 0.00 0.00 0.00 99 1019.0
20221203065601 53 45 6.0 10.0 0.00 0.00 0.00 99 1018.9
20221203065101 53 86 5.0 10.0 0.00 0.00 0.00 99 1018.9
20221203064102 52 330 3.0 6.0 0.00 0.00 0.00 99 1019.0
20221203063101 52 66 6.0 13.0 0.00 0.00 0.00 99 1018.8
20221203062602 52 66 5.0 9.0 0.00 0.00 0.00 99 1018.6
20221203062101 52 112 6.0 8.0 0.00 0.00 0.00 99 1018.6
20221203061102 51 52 7.0 10.0 0.00 0.00 0.00 99 1018.7
20221203060602 51 57 10.0 12.0 0.00 0.00 0.00 99 1018.7
20221203060104 51 94 8.0 9.0 0.00 0.00 0.00 99 1018.7
20221203054601 51 79 6.0 8.0 0.00 0.00 0.00 99 1018.6
20221203053601 51 74 7.0 9.0 0.00 0.00 0.00 99 1018.6
20221203053102 51 52 5.0 8.0 0.00 0.00 0.00 99 1018.6
20221203052602 51 59 5.0 8.0 0.00 0.00 0.00 99 1018.4
20221203052101 51 96 7.0 8.0 0.00 0.00 0.00 99 1018.4
20221203051602 51 90 5.0 6.0 0.00 0.00 0.00 99 1018.4
20221203051102 51 100 3.0 6.0 0.00 0.00 0.00 99 1018.2
20221203050602 51 45 4.0 7.0 0.00 0.00 0.00 99 1018.2
20221203050105 51 80 5.0 7.0 0.00 0.00 0.00 99 1018.1
20221203045601 51 97 5.0 7.0 0.00 0.00 0.00 99 1018.1
20221203044602 51 49 7.0 9.0 0.00 0.00 0.00 99 1017.9
20221203044101 51 45 6.0 9.0 0.00 0.00 0.00 99 1017.9
20221203043602 51 80 6.0 9.0 0.00 0.00 0.00 99 1017.8
20221203043102 51 88 9.0 10.0 0.00 0.00 0.00 99 1017.8
20221203042602 51 45 8.0 10.0 0.00 0.00 0.00 99 1017.8
20221203042102 51 90 7.0 9.0 0.00 0.00 0.00 99 1017.8
20221203041101 51 61 6.0 13.0 0.00 0.00 0.00 99 1017.7
20221203040603 51 88 6.0 10.0 0.00 0.00 0.00 99 1017.7
20221203035602 51 108 10.0 14.0 0.00 0.00 0.00 99 1017.7
20221203035102 51 48 6.0 7.0 0.00 0.00 0.00 99 1017.7
20221203033102 51 56 5.0 8.0 0.00 0.00 0.00 99 1017.8
20221203032602 51 78 6.0 9.0 0.00 0.00 0.00 99 1017.7
20221203032102 51 86 5.0 9.0 0.00 0.00 0.00 99 1017.7
20221203031602 51 47 6.0 8.0 0.00 0.00 0.00 99 1017.7
20221203031102 51 87 6.0 8.0 0.00 0.00 0.00 99 1017.7
20221203030105 51 42 6.0 7.0 0.00 0.00 0.00 99 1017.9
20221203025602 51 70 6.0 7.0 0.00 0.00 0.00 99 1017.9
20221203025101 51 90 6.0 6.0 0.00 0.00 0.00 99 1017.9
20221203024601 52 90 5.0 6.0 0.00 0.00 0.00 99 1018.0
20221203023602 52 59 5.0 7.0 0.00 0.00 0.00 99 1018.0
20221203023102 52 89 5.0 7.0 0.00 0.00 0.00 99 1018.0
20221203022602 52 67 5.0 9.0 0.00 0.00 0.00 99 1018.1
20221203022102 52 100 6.0 8.0 0.00 0.00 0.00 99 1018.1
20221203021602 52 39 5.0 7.0 0.00 0.00 0.00 99 1018.1
20221203021102 52 69 6.0 6.0 0.00 0.00 0.00 99 1018.3
20221203020602 52 80 3.0 6.0 0.00 0.00 0.00 99 1018.3
20221203020105 52 70 3.0 6.0 0.00 0.00 0.00 99 1018.2
20221203015602 52 99 5.0 7.0 0.00 0.00 0.00 99 1018.2
20221203015102 52 45 5.0 7.0 0.00 0.00 0.00 99 1018.1
20221203014602 52 78 6.0 8.0 0.00 0.00 0.00 99 1018.0
20221203013602 51 88 5.0 6.0 0.00 0.00 0.00 99 1018.1
20221203013102 51 52 3.0 6.0 0.00 0.00 0.00 99 1018.1
20221203012602 51 84 3.0 5.0 0.00 0.00 0.00 99 1018.1
20221203012102 52 108 3.0 7.0 0.00 0.00 0.00 99 1018.1
20221203011602 52 65 3.0 3.0 0.00 0.00 0.00 99 1018.1
20221203011102 52 90 3.0 5.0 0.00 0.00 0.00 99 1018.1
20221203010105 52 131 3.0 6.0 0.00 0.00 0.00 99 1017.9
20221203005602 52 89 3.0 6.0 0.00 0.00 0.00 99 1017.9
20221203005103 52 22 8.0 9.0 0.00 0.00 0.00 99 1017.9
20221203004102 52 34 5.0 8.0 0.00 0.00 0.00 99 1017.9
20221203003103 52 54 5.0 7.0 0.00 0.00 0.00 99 1017.8
20221203002602 52 45 6.0 7.0 0.00 0.00 0.00 99 1017.8
20221203002103 52 92 6.0 8.0 0.00 0.00 0.00 99 1017.8
20221203001602 52 89 5.0 8.0 0.00 0.00 0.00 99 1017.8
20221203000105 52 108 1.0 3.0 0.00 0.00 0.00 99 1017.8
20221202235602 52 128 1.0 2.0 0.00 0.00 0.00 99 1017.8
20221202235102 52 106 3.0 5.0 0.00 0.00 0.00 99 1017.8
20221202234602 52 77 3.0 5.0 0.00 0.00 0.00 99 1017.8
20221202234102 52 75 4.0 5.0 0.00 0.00 0.00 99 1017.8
20221202233602 52 34 3.0 5.0 0.00 0.00 0.00 99 1017.8
20221202233102 52 83 3.0 6.0 0.00 0.00 0.00 99 1017.8
20221202232603 52 99 6.0 7.0 0.00 0.00 0.00 99 1017.9
20221202231102 52 89 4.0 8.0 0.00 0.00 0.00 99 1018.0
20221202230602 52 90 6.0 9.0 0.00 0.00 0.00 99 1018.0
20221202230105 52 66 7.0 8.0 0.00 0.00 0.00 99 1018.0
20221202225602 52 64 4.0 9.0 0.00 0.00 0.00 99 1018.0
20221202224602 52 150 3.0 6.0 0.00 0.00 0.00 99 1018.0
20221202224103 52 88 3.0 5.0 0.00 0.00 0.00 99 1018.0
20221202223103 52 99 4.0 6.0 0.00 0.00 0.00 99 1018.1
20221202222602 52 79 3.0 5.0 0.00 0.00 0.00 99 1018.1
20221202222102 52 68 3.0 7.0 0.00 0.00 0.00 99 1018.1
20221202221603 52 32 5.0 7.0 0.00 0.00 0.00 99 1018.1
20221202221103 52 79 5.0 7.0 0.00 0.00 0.00 99 1018.1
20221202220603 52 59 6.0 7.0 0.00 0.00 0.00 99 1018.1